[[{"header":{"parameterUnit":"m.s-1","parameterCategory":1,"la1":30.2992,"la2":30.254,"lo1":-89.0895,"lo2":-89.0443,"dy":0.0025,"dx":0.0025,"nx":19,"ny":19,"refTime":"2026-05-06T03:00:00:Z","depth":0,"parameterNumber":2,"parameterNumberName":"U-component_of_WINDS"},"data":[0,0,0,3.3192,3.3195,3.3315,3.3316,3.3477,3.3478,0,0,0,0,0,0,0,0,0,0,0,3.316,3.3161,3.3192,3.3195,3.3315,3.3316,3.3477,3.3478,0,0,0,0,0,0,0,0,0,0,0,3.3159,3.3161,3.3162,3.3196,3.3315,3.3316,3.3476,3.3383,0,0,0,0,0,0,0,0,0,0,3.3265,3.3238,3.316,3.3162,3.3197,3.3315,3.3316,3.3379,3.3389,3.3425,0,3.3457,0,3.347,3.349,3.349,0,0,0,3.3193,3.3229,3.3259,3.3162,3.3198,3.3315,3.3261,3.3384,3.3396,3.3439,3.3459,3.3465,3.3473,3.3491,3.3491,3.3702,3.3703,0,0,3.3187,3.3183,3.3251,3.3267,3.3247,3.3257,3.3264,3.3391,3.3414,3.346,3.3468,3.3475,3.3492,3.3493,3.3701,3.3703,0,0,0,3.3169,3.3179,3.3205,3.326,3.3281,3.326,3.3269,3.3408,3.3417,3.347,3.3477,3.3493,3.3495,3.37,3.3702,3.3751,0,0,0,3.3165,3.3168,3.3202,3.3202,3.3279,3.3346,3.3283,3.3408,3.3422,3.3476,3.3493,3.3496,3.3699,3.3701,3.3747,3.3776,0,0,0,3.3151,3.3167,3.3185,3.3201,3.3253,3.3344,3.336,3.3411,3.3427,3.349,3.3497,3.3698,3.3701,3.3744,3.377,3.3831,0,0,0,3.3136,3.3228,3.3186,3.3292,3.3252,3.3373,3.3359,3.345,3.351,3.3494,3.3699,3.3702,3.3743,3.3766,3.3827,3.3881,3.3903,0,0,3.325,3.3242,3.3304,3.327,3.3398,3.3355,3.3491,3.355,3.356,3.3655,3.366,3.3749,3.377,3.383,3.4027,3.4045,0,0,0,3.3339,3.3384,3.3419,3.3476,3.3522,3.3565,3.3603,3.3625,3.3705,3.3607,3.3787,3.3799,3.3835,3.3861,3.3876,3.3907,3.3713,3.3713,3.3713,3.3497,3.3504,3.3608,3.363,3.3685,3.3723,3.3769,3.3805,3.3796,3.3839,3.3867,3.3986,3.4017,3.4028,3.406,3.3896,3.3896,3.3897,3.3897,3.3666,3.3731,3.3717,3.3813,3.382,3.3901,3.3942,3.3933,3.4011,3.3965,3.3997,3.3947,3.4047,3.4075,3.39,3.39,3.3899,3.3899,3.3899,3.3771,3.3803,3.3827,3.391,3.3973,3.3992,3.4067,3.4071,3.4075,3.4107,3.4137,3.4137,3.4137,3.4121,3.4121,3.4122,3.4122,3.4122,3.4123,3.3869,3.3895,3.3957,3.4014,3.4051,3.4101,3.4141,3.4178,3.422,3.4217,3.4218,3.4205,3.4055,3.4017,3.4129,3.4128,3.4127,3.4127,3.4126,3.4039,3.4001,3.4097,3.4134,3.4202,3.4265,3.4269,3.4344,3.4375,3.4413,3.4394,3.4282,3.4273,3.4262,3.4231,3.4391,3.4391,3.4391,3.4391,3.4127,3.4123,3.4222,3.4281,3.434,3.4353,3.4463,3.4495,3.4523,3.4543,3.452,3.448,3.4467,3.4467,3.445,3.4422,3.4627,3.4627,3.4627,3.4232,3.4234,3.4326,3.4351,3.4405,3.4451,3.4555,3.4624,3.4648,3.4637,3.4559,3.4549,3.4483,3.4461,3.4448,3.4423,3.437,0,0]},{"header":{"parameterUnit":"m.s-1","parameterCategory":1,"la1":30.2992,"la2":30.254,"lo1":-89.0895,"lo2":-89.0443,"dy":0.0025,"dx":0.0025,"nx":19,"ny":19,"refTime":"2026-05-06T03:00:00:Z","depth":0,"parameterNumber":3,"parameterNumberName":"V-component_of_WINDS"},"data":[0,0,0,3.9929,3.9933,4.0129,4.013,4.0374,4.0377,0,0,0,0,0,0,0,0,0,0,0,3.9869,3.987,3.9929,3.9934,4.0129,4.013,4.0374,4.0377,0,0,0,0,0,0,0,0,0,0,0,3.9868,3.987,3.9872,3.9934,4.0129,4.013,4.0373,4.0227,0,0,0,0,0,0,0,0,0,0,4.0038,3.9981,3.9869,3.9872,3.9936,4.0129,4.013,4.0221,4.0237,4.0283,0,4.0326,0,4.0355,4.0393,4.0393,0,0,0,3.9935,3.9967,4.0022,3.9872,3.9937,4.0129,4.0041,4.023,4.0248,4.0305,4.0329,4.0339,4.0359,4.0394,4.0395,4.0667,4.0668,0,0,3.9924,3.9902,4.001,4.0034,4.0005,4.0035,4.0047,4.0241,4.0265,4.033,4.0344,4.0363,4.0396,4.0398,4.0666,4.0667,0,0,0,3.9892,3.9895,3.9945,4.0024,4.006,4.0041,4.0055,4.0257,4.0275,4.0347,4.0366,4.0397,4.04,4.0665,4.0666,4.0708,0,0,0,3.9886,3.9876,3.994,3.9929,4.0056,4.0161,4.0067,4.0262,4.0284,4.0365,4.0397,4.0402,4.0663,4.0666,4.0704,4.0731,0,0,0,3.9857,3.9873,3.9901,3.9928,4.0011,4.0159,4.0188,4.0267,4.0296,4.0394,4.0403,4.0662,4.0665,4.07,4.0725,4.0798,0,0,0,3.9819,3.9932,3.9901,4.0035,4.001,4.0183,4.0187,4.0317,4.0405,4.0398,4.0663,4.0666,4.0699,4.0721,4.0794,4.0856,4.0879,0,0,3.995,3.9947,4.0028,4.0006,4.018,4.0155,4.0334,4.0434,4.0461,4.0596,4.0603,4.0705,4.0725,4.0797,4.1017,4.1035,0,0,0,4.0062,4.012,4.0171,4.0255,4.0336,4.0408,4.0483,4.052,4.0636,4.0527,4.0751,4.0763,4.0806,4.0837,4.0853,4.0892,4.0679,4.0679,4.0679,4.0216,4.0248,4.0384,4.044,4.0521,4.0599,4.0668,4.0731,4.0736,4.0789,4.083,4.096,4.0995,4.1007,4.1047,4.0864,4.0864,4.0864,4.0864,4.0412,4.05,4.0507,4.0642,4.0674,4.0787,4.0866,4.0866,4.0975,4.0931,4.0971,4.0921,4.1026,4.1063,4.0868,4.0867,4.0866,4.0866,4.0866,4.0518,4.0566,4.061,4.0738,4.0831,4.0883,4.0988,4.1013,4.1036,4.1075,4.1122,4.1121,4.1125,4.1095,4.1096,4.1096,4.1097,4.1097,4.1097,4.061,4.066,4.0747,4.0844,4.0902,4.0982,4.1062,4.1119,4.1189,4.1199,4.1199,4.1201,4.1031,4.0988,4.1105,4.1103,4.1102,4.1102,4.1101,4.0799,4.0761,4.0895,4.0955,4.1071,4.1163,4.1194,4.1309,4.136,4.1412,4.1405,4.1275,4.1273,4.1261,4.1226,4.1397,4.1397,4.1397,4.1397,4.0889,4.0891,4.1036,4.1129,4.1222,4.1264,4.1415,4.1478,4.1536,4.157,4.1549,4.1504,4.149,4.1497,4.1479,4.1447,4.1671,4.1671,4.1671,4.1008,4.1021,4.1145,4.1205,4.1298,4.1377,4.152,4.1625,4.1683,4.1683,4.1597,4.1586,4.1514,4.1489,4.1487,4.1459,4.1401,0,0]}]]